This demonstration page uses our WeatherBlox Daily Observations layout. Learn more.

Left ArrowRight Arrow

47.50024, -111.30081

Hourly Observations for June 24, 2020

Temp ( °F °C ) Dew Point ( °F °C ) Humidity (%) Winds ( mph kmh ) Pressure ( in mb ) Visibility ( mi km ) Precip ( " mm )
12:53 am 00:53 Clear 60 15.6 52 11.1 75 75 SSW 6 9 29.85 1011 10 16 0.00 0.00
1:53 am 01:53 Clear 60 15.6 52 11.1 75 75 SSW 7 11 29.84 1010 10 16 0.00 0.00
2:53 am 02:53 Clear 60 15.6 52 11.1 75 75 SW 10 17 29.83 1010 10 16 0.00 0.00
3:53 am 03:53 Clear 61 16.1 50 10 67 67 SW 9 15 29.82 1010 10 16 0.00 0.00
4:53 am 04:53 Clear 53 11.7 48 8.9 83 83 SW 10 17 29.83 1010 10 16 0.00 0.00
5:53 am 05:53 Sunny 56 13.3 49 9.4 77 77 W 6 9 29.83 1010 10 16 0.00 0.00
6:53 am 06:53 Sunny 61 16.1 51 10.6 70 70 W 3 6 29.82 1010 10 16 0.00 0.00
7:53 am 07:53 Sunny 66 18.9 51 10.6 59 59 W 8 13 29.83 1010 10 16 0.00 0.00
8:53 am 08:53 Sunny 70 21.1 49 9.4 47 47 W 5 7 29.83 1010 10 16 0.00 0.00
9:53 am 09:53 Sunny 76 24.4 50 10 40 40 W 7 11 29.82 1010 10 16 0.00 0.00
10:53 am 10:53 Sunny 79 26.1 50 10 36 36 VRB 3 6 29.80 1009 10 16 0.00 0.00
11:53 am 11:53 Sunny 81 27.2 51 10.6 35 35 SW 5 7 29.80 1009 10 16 0.00 0.00
12:53 pm 12:53 Sunny 83 28.3 49 9.4 31 31 W 9 15 29.81 1009 10 16 0.00 0.00
1:53 pm 13:53 Sunny 86 30 49 9.4 28 28 NNW 6 9 29.79 1009 10 16 0.00 0.00
2:53 pm 14:53 Sunny 86 30 46 7.8 25 25 VRB 5 7 29.77 1008 10 16 0.00 0.00
3:53 pm 15:53 Mostly Sunny 87 30.6 48 8.9 26 26 NE 8 13 29.73 1007 10 16 0.00 0.00
4:53 pm 16:53 Sunny 86 30 47 8.3 26 26 E 7 11 29.72 1006 10 16 0.00 0.00
5:53 pm 17:53 Sunny 84 28.9 47 8.3 27 27 SE 9 15 29.70 1006 10 16 0.00 0.00
6:53 pm 18:53 Mostly Sunny 80 26.7 50 10 35 35 S 6 9 29.69 1006 10 16 0.00 0.00
7:33 pm 19:33 Windy with Storms Likely 71 21.7 48 8.9 44 44 SW 36 57 29.62 1003 7 11 0.00 0.00
7:37 pm 19:37 Cloudy with Strong Thunderstorms 63 17.2 53 11.7 70 70 SW 30 48 29.68 1005 2 3 0.02 0.51
7:46 pm 19:46 Mostly Cloudy with Thunderstorms 63 17.2 53 11.7 70 70 SW 17 28 29.68 1005 4 6 0.09 2.29
7:53 pm 19:53 Partly Cloudy with Thunderstorms 64 17.8 53 11.7 68 68 SSW 12 19 29.76 1008 10 16 0.09 2.29
8:01 pm 20:01 Partly Cloudy 64 17.8 53 11.7 68 68 W 8 13 29.69 1005 10 16 0.00 0.00
8:53 pm 20:53 Sunny 64 17.8 55 12.8 73 73 NE 9 15 29.80 1009 10 16 0.00 0.00
9:53 pm 21:53 Mostly Clear 61 16.1 54 12.2 78 78 N 9 15 29.84 1011 10 16 0.00 0.00
10:53 pm 22:53 Cloudy 62 16.7 55 12.8 78 78 ESE 7 11 29.87 1012 10 16 0.00 0.00
11:53 pm 23:53 Cloudy 61 16.1 55 12.8 81 81 NNW 7 11 29.89 1012 10 16 0.00 0.00

Powered by AerisWeather